Powrót do katalogu

STARLINK-34604

AktywnyŁącznośćVLEO
NORAD 64801·PAYLOAD·🇺🇸 United States

Wystrzelony Jul 16, 2025 z Vandenberg Space Force Base

Loading…

Następne Przeloty (najbliższe 24 godziny)

TLE

ŚwieżeSource: CelesTrak SupGP

Epoka: Sep 15, 2026, 03:15 UTC

1 64801C 25150M   26258.13590278  .00051441  00000+0  43119-2 0  2582
2 64801  70.0026  16.8042 0003240 267.5346  96.4806 14.98295577    10

Śledź STARLINK-34604 w czasie rzeczywistym z AllMySat

Download on the App Store